Location: Killam
(52.7910°N, 111.8608°W)
Time: 17:01:17
(UTC+00:00)

Vanguard 2 Rocket - Pass Details

Date: 22 February 2026
Orbit: 553 x 3286 km, 32.9° (Epoch: 11 March)

Event Time Altitude Azimuth Distance (km) Brightness Sun altitude
Rises 22:01:35 0° 259° (WSW) 7,192 12.2 20.5°
Reaches altitude 10° 22:07:30 10° 251° (WSW) 5,978 12.2 19.9°
Maximum altitude 22:21:29 31° 199° (SSW) 3,672 11.5 18.5°
Drops below altitude 10° 22:31:16 10° 144° (SE) 4,140 10.4 17.5°
Sets 22:34:30 0° 134° (SE) 4,768 10.6 17.2°
